Torna al catalogo

DELTA 1 DEB

AttivoLEO
NORAD 7170·DEBRIS·🇺🇸 United States

Lanciato Nov 6, 1973 da Vandenberg Space Force Base

Loading…

Prossimi Passaggi (prossime 24 ore)

TLE

AggiornatoSource: Space-Track

Epoca: Sep 13, 2026, 16:27 UTC

1 07170U 73086EJ  26256.68581964  .00000794  00000-0  24841-2 0  9998
2 07170 101.6512 316.9029 0088787 310.6601 168.5141 13.07244835475726

Traccia DELTA 1 DEB in tempo reale con AllMySat

Download on the App Store